Regional Weather Roundup
Issued by NWS

Home | Current Version | Previous Version | Text Only | Print | Product List | Glossary On
Versions: 1 2 3 4 5 6 7 8 9 10 11 12 13 14 15 16 17 18 19 20 21 22 23 24 25 26 27 28 29 30 31 32 33 34 35 36 37 38 39 40 41 42 43 44 45 46 47 48 49 50
000
ASUS43 KDTX 231510
RWRMI
MICHIGAN HOURLY REGIONAL WEATHER ROUNDUP
NATIONAL WEATHER SERVICE DETROIT/PONTIAC MI
1100 AM EDT THU OCT 23 2014

NOTE: "FAIR" INDICATES FEW OR NO CLOUDS BELOW 12,000 FEET WITH NO
SIGNIFICANT WEATHER AND/OR OBSTRUCTION TO VISIBILITY.

MIZ047>049-052>055-059>063-066>070-074>076-081>083-231600-
SOUTHEAST LOWER MICHIGAN

CITY           SKY/WX    TMP DP  RH WIND       PRES   REMARKS
ADRIAN         SUNNY     47  41  80 W3        30.26S
ALMA           CLOUDY    40  39  98 CALM      30.26R
ANN ARBOR      SUNNY     50  40  68 W7        30.24S
BAD AXE        CLOUDY    42  42 100 NW5       30.25S
DETROIT CITY   SUNNY     51  40  65 CALM      30.25F
DETROIT        MOSUNNY   49  41  74 NW3       30.25F
FLINT          MOSUNNY   42  38  85 CALM      30.26S
GROSSE ILE     SUNNY     48  43  81 CALM      30.24S
HILLSDALE      SUNNY     46  46  99 W6        30.24S
HOWELL         SUNNY     41  41  99 CALM      30.25S

CITY           SKY/WX    TMP DP  RH WIND       PRES   REMARKS
JACKSON        SUNNY     43  40  89 W5        30.24F
LAMBERTVILLE   SUNNY     48  41  76 W3        30.25F
LANSING        SUNNY     41  39  93 S5        30.26R
LAPEER         NOT AVBL
MASON          MOSUNNY   41  40  97 CALM      30.25S
MONROE         SUNNY     48  43  81 CALM      30.24F
MT. CLEMENS    MOSUNNY   48  42  80 VRB5      30.21F
PONTIAC        MOSUNNY   47  39  74 NW6       30.23S
PORT HOPE        N/A     48  40  73 W6        30.23R
PORT HURON     MOSUNNY   46  43  87 NW3       30.24S
TRI CITIES     CLOUDY    41  38  89 VRB3      30.27R
YPSILANTI      SUNNY     52  40  63 CALM      30.26R
$$
MIZ043>046-050>051-056>058-064>065-071>073-077>080-231600-
SOUTHWEST LOWER MICHIGAN

CITY           SKY/WX    TMP DP  RH WIND       PRES   REMARKS
BATTLE CREEK   SUNNY     42  40  92 SW8       30.25S
BENTON HARBOR  SUNNY     44  41  89 S7        30.24S FOG
BIG RAPIDS     FOG       37  37 100 S5        30.24S VSB 1/4
COLDWATER      CLOUDY    43  42  97 W5        30.25S FOG
HOLLAND        MOSUNNY   44  41  89 S6        30.24F FOG
GRAND RAPIDS   PTSUNNY   43  41  93 VRB6      30.25S FOG
KALAMAZOO      MOSUNNY   41  39  93 SW6       30.25S FOG
MARSHALL       FOG       39  38  99 CALM      30.25S VSB 3/4
MUSKEGON       PTSUNNY   42  39  89 SE7       30.23F FOG
$$
MIZ016>042-231600-
NORTHERN LOWER MICHIGAN

CITY           SKY/WX    TMP DP  RH WIND       PRES   REMARKS
ALPENA         SUNNY     43  38  82 VRB3      30.23S
BEAVER ISLAND  CLOUDY    47  44  88 S5        30.19S
BELLAIRE       CLOUDY    42  37  84 S6        30.22F
CADILLAC       FOG       36  36 100 SW6       30.21S VSB<1/4
CHARLEVOIX     CLOUDY    43  41  94 S5        30.23S
FRANKFORT      MOSUNNY   47  40  78 SE5       30.20S
GAYLORD        SUNNY     39  37  92 SW8       30.20F
GRAYLING       FOG       34  34 100 CALM      30.23S VSB<1/4
HARBOR SPRINGS PTSUNNY   45  40  82 S7        30.21F
HOUGHTON LAKE  FOG       35  35 100 SW6       30.24R VSB 1/4
OSCODA         SUNNY     44  39  81 CALM      30.23F
PELLSTON       SUNNY     44  38  79 S5        30.21F
TRAVERSE CITY  PTSUNNY   41  36  82 VRB6      30.20F
$$
MIZ007>008-015-231600-
EASTERN UPPER MICHIGAN

CITY           SKY/WX    TMP DP  RH WIND       PRES   REMARKS
KINROSS        SUNNY     45  43  93 SE6       30.20S
MACKINAC ISLAN SUNNY     44  38  81 S3        30.20S
NEWBERRY       CLOUDY    45  41  88 S12       30.17S
S. S. MARIE    FOG       38  37  97 SE5       30.20F VSB 1/4
$$
MIZ004>006-011>014-085-231600-
CENTRAL UPPER MICHIGAN

CITY           SKY/WX    TMP DP  RH WIND       PRES   REMARKS
MANISTIQUE     PTSUNNY   50  45  83 S9        30.16S
ESCANABA       MOSUNNY   48  43  81 S10       30.14F
MENOMINEE      MOSUNNY   50  39  66 S10       30.14S
SAWYER-GWINN   SUNNY     41  37  87 S14G20    30.10F
$$
MIZ001>003-009>011-084-231600-
WESTERN UPPER MICHIGAN

CITY           SKY/WX    TMP DP  RH WIND       PRES   REMARKS
IRON MOUNTAIN  CLOUDY    43  36  76 S8        30.10F
HOUGHTON       CLOUDY    46  39  76 S12       30.02F
COPPER HARBOR    N/A     50  40  68 SW13G21   30.01F
IRONWOOD       CLOUDY    46  43  87 S7        29.99S
$$

ABBREVIATIONS USED IN REMARKS
   TC - TEMPERATURE IN CELSIUS
  WCI - WIND CHILL INDEX
   HX - HEAT INDEX
  VSB - VISIBILITY




USA.gov is the U.S. government's official web portal to all federal, state and local government web resources and services.